Location: Endfield
(51.6667°N, 0.0667°W)
Time: 20:04:37
(UTC+00:00)

Cosmos 1674 - Pass Details

Date: 19 May 2024
Orbit: 436 x 453 km, 82.5° (Epoch: 14 June)

Event Time Altitude Azimuth Distance (km) Brightness Sun altitude
Exits shadow 23:10:37 22° 103° (ESE) 1,054 4.0 -17.6°
Maximum altitude 23:11:06 23° 89° (E) 1,033 4.1 -17.6°
Drops below altitude 10° 23:13:54 10° 36° (NE) 1,610 5.8 -17.7°
Sets 23:16:16 0° 22° (NNE) 2,492 7.2 -17.7°
